This is the latest recevied weather packets stored in our database for station/object N6DZK. If no packets are shown the sender has not sent any weather packets the latest 10 day(s).
| Time | Temp. | Humidity | Pressure | Rain* | Wind** | Luminosity | Snow |
|---|---|---|---|---|---|---|---|
| 1777349438 | 12.78° C | 74% | 1019 hPa | 0 mm | - | 0 W/m² | - |
| 1777349137 | 12.78° C | 74% | 1018.9 hPa | 0 mm | - | 0 W/m² | - |
| 1777348834 | 12.78° C | 73% | 1018.9 hPa | 0 mm | - | 0 W/m² | - |
| 1777348532 | 13.33° C | 73% | 1018.8 hPa | 0 mm | - | 0 W/m² | - |
| 1777348229 | 13.33° C | 72% | 1018.6 hPa | 0 mm | - | 0 W/m² | - |
| 1777347927 | 13.33° C | 71% | 1018.6 hPa | 0 mm | - | 0 W/m² | - |
| 1777347625 | 13.89° C | 70% | 1018.5 hPa | 0 mm | - | 0 W/m² | - |
| 1777347320 | 13.89° C | 69% | 1018.4 hPa | 0 mm | - | 0 W/m² | - |
| 1777347017 | 14.44° C | 68% | 1018.2 hPa | 0 mm | - | 0 W/m² | - |
| 1777346714 | 14.44° C | 68% | 1018.3 hPa | 0 mm | - | 0 W/m² | - |
| 1777346409 | 14.44° C | 67% | 1018.4 hPa | 0 mm | - | 0 W/m² | - |
| 1777346107 | 14.44° C | 67% | 1018.1 hPa | 0 mm | - | 0 W/m² | - |
| 1777345804 | 14.44° C | 66% | 1018.1 hPa | 0 mm | - | 0 W/m² | - |
| 1777345501 | 14.44° C | 66% | 1018.1 hPa | 0 mm | - | 0 W/m² | - |
| 1777345198 | 14.44° C | 66% | 1017.7 hPa | 0 mm | - | 1 W/m² | - |
| 1777344894 | 14.44° C | 66% | 1017.7 hPa | 0 mm | - | 2 W/m² | - |
| 1777344590 | 13.89° C | 68% | 1017.7 hPa | 0 mm | - | 4 W/m² | - |
| 1777344287 | 13.89° C | 68% | 1017.6 hPa | 0 mm | - | 7 W/m² | - |
| 1777343984 | 13.89° C | 68% | 1017.4 hPa | 0 mm | - | 11 W/m² | - |
| 1777343682 | 13.89° C | 67% | 1017.5 hPa | 0 mm | - | 16 W/m² | - |
| 1777343379 | 13.89° C | 67% | 1017.5 hPa | 0 mm | - | 21 W/m² | - |
| 1777343078 | 13.89° C | 67% | 1017.3 hPa | 0 mm | - | 25 W/m² | - |
| 1777342774 | 14.44° C | 66% | 1017.3 hPa | 0 mm | - | 26 W/m² | - |
| 1777342471 | 14.44° C | 65% | 1017.1 hPa | 0 mm | - | 29 W/m² | - |
| 1777342168 | 15° C | 64% | 1017.2 hPa | 0 mm | - | 32 W/m² | - |
* Rain latest hour (hover to see other rain measurements)
** Current wind speed in m/s (hover to see current wind gust speed)